| time (UTC) | temp F | wind direction | speed knots | gust knots | rain 1hr in | rain 24hr in | rain mn in | humidity % | barometer mb |
| 20260503200327 | 62 | 162 | 0.9 | 5.2 | 0.00 | 0.00 | 0.00 | 39 | 1016.1 |
| 20260503195824 | 62 | 186 | 0.9 | 5.2 | 0.00 | 0.00 | 0.00 | 42 | 1016.3 |
| 20260503195321 | 63 | 198 | 1.7 | 7.8 | 0.00 | 0.00 | 0.00 | 36 | 1016.6 |
| 20260503194818 | 62 | 110 | 1.7 | 2.6 | 0.00 | 0.00 | 0.00 | 41 | 1016.3 |
| 20260503194314 | 61 | 168 | 2.6 | 6.1 | 0.00 | 0.00 | 0.00 | 39 | 1016.5 |
| 20260503193810 | 61 | 175 | 2.6 | 5.2 | 0.00 | 0.00 | 0.00 | 39 | 1016.4 |
| 20260503193306 | 61 | 157 | 0.9 | 3.5 | 0.00 | 0.00 | 0.00 | 39 | 1016.9 |
| 20260503192802 | 63 | 126 | 1.7 | 5.2 | 0.00 | 0.00 | 0.00 | 39 | 1017.3 |
| 20260503192258 | 62 | 211 | 1.7 | 3.5 | 0.00 | 0.00 | 0.00 | 38 | 1017.1 |
| 20260503191754 | 62 | 158 | 2.6 | 3.5 | 0.00 | 0.00 | 0.00 | 41 | 1017.5 |
| 20260503191251 | 63 | 154 | 3.5 | 5.2 | 0.00 | 0.00 | 0.00 | 38 | 1017.1 |
| 20260503190748 | 64 | 220 | 2.6 | 2.6 | 0.00 | 0.00 | 0.00 | 39 | 1017.3 |
| 20260503190245 | 63 | 177 | 1.7 | 5.2 | 0.00 | 0.00 | 0.00 | 38 | 1017.7 |
| 20260503185742 | 62 | 65 | 1.7 | 7.0 | 0.00 | 0.00 | 0.00 | 37 | 1017.7 |
| 20260503185238 | 62 | 202 | 3.5 | 8.7 | 0.00 | 0.00 | 0.00 | 37 | 1017.7 |
| 20260503184732 | 62 | 199 | 3.5 | 3.5 | 0.00 | 0.00 | 0.00 | 38 | 1017.7 |
| 20260503184229 | 62 | 128 | 1.7 | 8.7 | 0.00 | 0.00 | 0.00 | 40 | 1017.8 |
| 20260503183725 | 61 | 241 | 1.7 | 5.2 | 0.00 | 0.00 | 0.00 | 41 | 1017.9 |
| 20260503183223 | 61 | 27 | 1.7 | 3.5 | 0.00 | 0.00 | 0.00 | 40 | 1018.1 |
| 20260503182721 | 61 | 182 | 0.9 | 1.7 | 0.00 | 0.00 | 0.00 | 43 | 1018.0 |
| 20260503182220 | 60 | 75 | 0.9 | 2.6 | 0.00 | 0.00 | 0.00 | 41 | 1018.0 |
| 20260503181715 | 60 | 135 | 5.2 | 7.8 | 0.00 | 0.00 | 0.00 | 39 | 1018.1 |
| 20260503181213 | 60 | 44 | 2.6 | 5.2 | 0.00 | 0.00 | 0.00 | 41 | 1018.3 |
| 20260503180709 | 61 | 197 | 2.6 | 3.5 | 0.00 | 0.00 | 0.00 | 38 | 1018.4 |
| 20260503180208 | 60 | 162 | 1.7 | 6.1 | 0.00 | 0.00 | 0.00 | 41 | 1018.5 |
| 20260503175704 | 61 | 39 | 2.6 | 8.7 | 0.00 | 0.00 | 0.00 | 39 | 1018.4 |
| 20260503175202 | 61 | 254 | 2.6 | 5.2 | 0.00 | 0.00 | 0.00 | 40 | 1018.4 |
| 20260503174657 | 61 | 185 | 2.6 | 5.2 | 0.00 | 0.00 | 0.00 | 40 | 1018.4 |
| 20260503174155 | 61 | 233 | 1.7 | 2.6 | 0.00 | 0.00 | 0.00 | 42 | 1018.7 |
| 20260503173650 | 60 | 146 | 1.7 | 7.0 | 0.00 | 0.00 | 0.00 | 40 | 1018.6 |
| 20260503173147 | 60 | 136 | 2.6 | 9.6 | 0.00 | 0.00 | 0.00 | 39 | 1018.8 |
| 20260503172644 | 61 | 205 | 2.6 | 7.8 | 0.00 | 0.00 | 0.00 | 43 | 1018.9 |
| 20260503172141 | 61 | 59 | 0.9 | 5.2 | 0.00 | 0.00 | 0.00 | 40 | 1018.6 |
| 20260503171637 | 60 | 116 | 2.6 | 5.2 | 0.00 | 0.00 | 0.00 | 42 | 1019.0 |
| 20260503171135 | 60 | 182 | 5.2 | 8.7 | 0.00 | 0.00 | 0.00 | 39 | 1019.3 |
| 20260503170632 | 60 | 145 | 1.7 | 7.0 | 0.00 | 0.00 | 0.00 | 39 | 1019.2 |
| 20260503170128 | 60 | 152 | 2.6 | 3.5 | 0.00 | 0.00 | 0.00 | 40 | 1019.4 |
| 20260503150520 | 56 | 126 | 1.7 | 1.7 | 0.00 | 0.00 | 0.00 | 51 | 1020.7 |
| 20260503131413 | 47 | 341 | 1.7 | 2.6 | 0.00 | 0.00 | 0.00 | 61 | 1020.4 |
| 20260503130910 | 47 | 199 | 3.5 | 5.2 | 0.00 | 0.00 | 0.00 | 63 | 1020.5 |
| 20260503130407 | 46 | 186 | 0.9 | 1.7 | 0.00 | 0.00 | 0.00 | 64 | 1020.5 |
| 20260503110811 | 35 | 108 | 0.0 | 0.0 | 0.00 | 0.00 | 0.00 | 89 | 1019.8 |
| 20260503110308 | 35 | 121 | 0.0 | 0.9 | 0.00 | 0.00 | 0.00 | 89 | 1019.9 |
| 20260503100234 | 33 | 92 | 0.0 | 0.0 | 0.00 | 0.00 | 0.00 | 99 | 1019.3 |
| 20260503090154 | 32 | 92 | 0.0 | 0.0 | 0.00 | 0.00 | 0.00 | 99 | 1019.5 |
| 20260503081624 | 32 | 93 | 0.0 | 0.0 | 0.00 | 0.00 | 0.00 | 99 | 1019.4 |
| 20260503081121 | 32 | 93 | 0.0 | 0.0 | 0.00 | 0.00 | 0.00 | 99 | 1019.3 |
| 20260503080617 | 32 | 93 | 0.0 | 0.0 | 0.00 | 0.00 | 0.00 | 99 | 1019.3 |
| 20260503080113 | 32 | 93 | 0.0 | 0.0 | 0.00 | 0.00 | 0.00 | 99 | 1019.4 |
| 20260503072550 | 32 | 93 | 0.0 | 0.0 | 0.00 | 0.00 | 0.00 | 98 | 1019.2 |
| 20260503072048 | 32 | 93 | 0.0 | 0.0 | 0.00 | 0.00 | 0.00 | 98 | 1019.2 |
| 20260503071544 | 32 | 93 | 0.0 | 0.0 | 0.00 | 0.00 | 0.00 | 98 | 1019.1 |
| 20260503071041 | 32 | 93 | 0.0 | 0.0 | 0.00 | 0.00 | 0.00 | 98 | 1019.1 |
| 20260503070537 | 32 | 93 | 0.0 | 0.0 | 0.00 | 0.00 | 0.00 | 97 | 1019.2 |
| 20260503054951 | 33 | 93 | 0.0 | 0.0 | 0.00 | 0.00 | 0.00 | 94 | 1019.7 |
| 20260503054447 | 34 | 93 | 0.0 | 0.0 | 0.00 | 0.00 | 0.00 | 94 | 1019.6 |
| 20260503053945 | 34 | 93 | 0.0 | 0.0 | 0.00 | 0.00 | 0.00 | 95 | 1019.6 |
| 20260503053443 | 34 | 93 | 0.0 | 0.0 | 0.00 | 0.00 | 0.00 | 95 | 1019.6 |
| 20260503052939 | 34 | 93 | 0.0 | 0.0 | 0.00 | 0.00 | 0.00 | 95 | 1019.7 |
| 20260503052437 | 34 | 93 | 0.0 | 0.0 | 0.00 | 0.00 | 0.00 | 95 | 1019.5 |
| 20260503051932 | 34 | 93 | 0.0 | 0.0 | 0.00 | 0.00 | 0.00 | 94 | 1019.6 |
| 20260503051428 | 34 | 93 | 0.0 | 0.0 | 0.00 | 0.00 | 0.00 | 94 | 1019.5 |
| 20260503050926 | 34 | 93 | 0.0 | 0.0 | 0.00 | 0.00 | 0.00 | 94 | 1019.6 |
| 20260503050421 | 34 | 93 | 0.0 | 0.0 | 0.00 | 0.00 | 0.00 | 93 | 1019.6 |
| 20260503045920 | 34 | 93 | 0.0 | 0.0 | 0.00 | 0.00 | 0.00 | 93 | 1019.7 |
| 20260503045417 | 34 | 93 | 0.0 | 0.0 | 0.00 | 0.00 | 0.00 | 92 | 1019.5 |
| 20260503044914 | 34 | 93 | 0.0 | 0.0 | 0.00 | 0.00 | 0.00 | 92 | 1019.6 |
| 20260503044410 | 35 | 93 | 0.0 | 0.0 | 0.00 | 0.00 | 0.00 | 91 | 1019.6 |
| 20260503043908 | 35 | 93 | 0.0 | 0.0 | 0.00 | 0.00 | 0.00 | 90 | 1019.8 |
| 20260503043404 | 35 | 93 | 0.0 | 0.0 | 0.00 | 0.00 | 0.00 | 90 | 1019.6 |
| 20260503042900 | 35 | 93 | 0.0 | 0.0 | 0.00 | 0.00 | 0.00 | 89 | 1019.6 |
| 20260503042357 | 35 | 93 | 0.0 | 0.0 | 0.00 | 0.00 | 0.00 | 89 | 1019.7 |
| 20260503041853 | 36 | 93 | 0.0 | 0.0 | 0.00 | 0.00 | 0.00 | 88 | 1019.7 |
| 20260503041350 | 36 | 93 | 0.0 | 0.0 | 0.00 | 0.00 | 0.00 | 87 | 1019.5 |
| 20260503040848 | 36 | 93 | 0.0 | 0.0 | 0.00 | 0.00 | 0.00 | 87 | 1019.6 |
| 20260503040346 | 37 | 93 | 0.0 | 0.0 | 0.00 | 0.00 | 0.00 | 86 | 1019.8 |
| 20260503035842 | 37 | 93 | 0.0 | 0.0 | 0.00 | 0.00 | 0.00 | 85 | 1019.7 |
| 20260503035339 | 37 | 92 | 0.0 | 0.0 | 0.00 | 0.00 | 0.00 | 84 | 1019.6 |
| 20260503034837 | 37 | 91 | 0.0 | 0.0 | 0.00 | 0.00 | 0.00 | 84 | 1019.6 |
| 20260503034334 | 37 | 91 | 0.0 | 0.0 | 0.00 | 0.00 | 0.00 | 83 | 1019.8 |
| 20260503033831 | 37 | 91 | 0.0 | 0.0 | 0.00 | 0.00 | 0.00 | 83 | 1019.8 |
| 20260503033329 | 37 | 82 | 0.0 | 0.0 | 0.00 | 0.00 | 0.00 | 81 | 1019.7 |
| 20260503032826 | 38 | 82 | 0.0 | 0.0 | 0.00 | 0.00 | 0.00 | 80 | 1019.8 |
| 20260503032325 | 38 | 82 | 0.0 | 0.0 | 0.00 | 0.00 | 0.00 | 80 | 1019.7 |
| 20260503031822 | 38 | 82 | 0.0 | 0.0 | 0.00 | 0.00 | 0.00 | 81 | 1019.7 |
| 20260503031320 | 37 | 82 | 0.0 | 0.0 | 0.00 | 0.00 | 0.00 | 81 | 1019.7 |
| 20260503030816 | 38 | 81 | 0.0 | 0.0 | 0.00 | 0.00 | 0.00 | 80 | 1019.8 |
| 20260503030313 | 38 | 81 | 0.0 | 0.0 | 0.00 | 0.00 | 0.00 | 80 | 1019.6 |
| 20260503025809 | 38 | 81 | 0.0 | 0.0 | 0.00 | 0.00 | 0.00 | 79 | 1019.7 |
| 20260503025307 | 38 | 81 | 0.0 | 0.0 | 0.00 | 0.00 | 0.00 | 77 | 1019.6 |
| 20260503024803 | 39 | 81 | 0.0 | 0.0 | 0.00 | 0.00 | 0.00 | 76 | 1019.8 |
| 20260503024300 | 39 | 81 | 0.0 | 0.0 | 0.00 | 0.00 | 0.00 | 75 | 1019.6 |
| 20260503023757 | 39 | 81 | 0.0 | 0.0 | 0.00 | 0.00 | 0.00 | 73 | 1019.7 |
| 20260503023255 | 40 | 81 | 0.0 | 0.0 | 0.00 | 0.00 | 0.00 | 72 | 1019.6 |
| 20260503022751 | 40 | 81 | 0.0 | 0.0 | 0.00 | 0.00 | 0.00 | 69 | 1019.6 |
| 20260503022250 | 41 | 81 | 0.0 | 0.0 | 0.00 | 0.00 | 0.00 | 69 | 1019.5 |
| 20260503021748 | 41 | 81 | 0.0 | 0.0 | 0.00 | 0.00 | 0.00 | 66 | 1019.6 |
| 20260503021243 | 41 | 81 | 0.0 | 0.0 | 0.00 | 0.00 | 0.00 | 65 | 1019.6 |
| 20260503020742 | 42 | 81 | 0.0 | 0.0 | 0.00 | 0.00 | 0.00 | 64 | 1019.5 |
| 20260503020239 | 42 | 81 | 0.0 | 0.0 | 0.00 | 0.00 | 0.00 | 64 | 1019.4 |
| 20260503015735 | 42 | 81 | 0.0 | 0.0 | 0.00 | 0.00 | 0.00 | 63 | 1019.4 |
| 20260503015232 | 43 | 81 | 0.0 | 0.0 | 0.00 | 0.00 | 0.00 | 62 | 1019.3 |
| 20260503014728 | 43 | 80 | 0.0 | 0.0 | 0.00 | 0.00 | 0.00 | 64 | 1019.3 |
| 20260503014226 | 43 | 80 | 0.0 | 0.0 | 0.00 | 0.00 | 0.00 | 65 | 1019.2 |
| 20260503013723 | 43 | 80 | 0.0 | 0.0 | 0.00 | 0.00 | 0.00 | 64 | 1019.1 |
| 20260503013221 | 43 | 80 | 0.0 | 0.0 | 0.00 | 0.00 | 0.00 | 64 | 1019.0 |
| 20260503012718 | 44 | 80 | 0.0 | 0.0 | 0.00 | 0.00 | 0.00 | 62 | 1019.0 |
| 20260503012215 | 44 | 79 | 0.0 | 0.0 | 0.00 | 0.00 | 0.00 | 61 | 1018.9 |
| 20260503011711 | 44 | 78 | 0.0 | 0.0 | 0.00 | 0.00 | 0.00 | 61 | 1018.9 |
| 20260503011209 | 45 | 79 | 0.0 | 0.0 | 0.00 | 0.00 | 0.00 | 60 | 1018.8 |
| 20260503010704 | 45 | 79 | 0.0 | 0.9 | 0.00 | 0.00 | 0.00 | 60 | 1018.9 |
| 20260503010202 | 46 | 71 | 0.9 | 0.9 | 0.00 | 0.00 | 0.00 | 58 | 1018.8 |
| 20260503005659 | 46 | 71 | 0.0 | 0.9 | 0.00 | 0.00 | 0.00 | 57 | 1018.8 |
| 20260503005156 | 46 | 72 | 0.0 | 0.9 | 0.00 | 0.00 | 0.00 | 57 | 1018.7 |
| 20260503004652 | 46 | 77 | 0.0 | 0.9 | 0.00 | 0.00 | 0.00 | 57 | 1018.7 |
| 20260503004151 | 47 | 73 | 0.0 | 0.0 | 0.00 | 0.00 | 0.00 | 58 | 1018.6 |
| 20260503003648 | 47 | 63 | 0.9 | 1.7 | 0.00 | 0.00 | 0.00 | 54 | 1018.7 |
| 20260503003145 | 47 | 72 | 0.0 | 0.9 | 0.00 | 0.00 | 0.00 | 54 | 1018.6 |
| 20260503002641 | 48 | 67 | 0.0 | 0.9 | 0.00 | 0.00 | 0.00 | 52 | 1018.6 |
| 20260503002138 | 48 | 37 | 1.7 | 1.7 | 0.00 | 0.00 | 0.00 | 50 | 1018.4 |
| 20260503001634 | 48 | 60 | 0.9 | 0.9 | 0.00 | 0.00 | 0.00 | 54 | 1018.1 |
| 20260503001131 | 48 | 64 | 1.7 | 1.7 | 0.00 | 0.00 | 0.00 | 51 | 1018.3 |
| 20260503000629 | 48 | 54 | 0.9 | 1.7 | 0.00 | 0.00 | 0.00 | 49 | 1018.4 |
| 20260503000126 | 49 | 77 | 0.9 | 3.5 | 0.00 | 0.00 | 0.00 | 50 | 1018.2 |
| 20260502235622 | 49 | 32 | 1.7 | 1.7 | 0.00 | 0.00 | 0.00 | 49 | 1018.2 |
| 20260502235121 | 49 | 71 | 0.9 | 1.7 | 0.00 | 0.00 | 0.00 | 54 | 1018.0 |
| 20260502234616 | 49 | 76 | 0.0 | 0.9 | 0.00 | 0.00 | 0.00 | 53 | 1018.2 |
| 20260502234114 | 49 | 48 | 0.9 | 1.7 | 0.00 | 0.00 | 0.00 | 48 | 1018.0 |
| 20260502233609 | 50 | 85 | 0.0 | 0.9 | 0.00 | 0.00 | 0.00 | 51 | 1017.9 |
| 20260502233107 | 50 | 65 | 0.9 | 2.6 | 0.00 | 0.00 | 0.00 | 51 | 1018.0 |
| 20260502232602 | 50 | 95 | 0.9 | 1.7 | 0.00 | 0.00 | 0.00 | 51 | 1018.1 |
| 20260502232100 | 50 | 54 | 0.9 | 2.6 | 0.00 | 0.00 | 0.00 | 47 | 1018.1 |
| 20260502231557 | 50 | 51 | 1.7 | 1.7 | 0.00 | 0.00 | 0.00 | 49 | 1018.1 |
| 20260502231055 | 50 | 238 | 1.7 | 5.2 | 0.00 | 0.00 | 0.00 | 46 | 1017.9 |
| 20260502230553 | 50 | 61 | 0.9 | 2.6 | 0.00 | 0.00 | 0.00 | 47 | 1018.1 |
| 20260502230051 | 50 | 31 | 0.9 | 1.7 | 0.00 | 0.00 | 0.00 | 47 | 1018.0 |
| 20260502225546 | 51 | 62 | 0.9 | 1.7 | 0.00 | 0.00 | 0.00 | 47 | 1017.8 |
| 20260502225043 | 51 | 56 | 0.0 | 1.7 | 0.00 | 0.00 | 0.00 | 45 | 1017.9 |
| 20260502224539 | 51 | 34 | 1.7 | 3.5 | 0.00 | 0.00 | 0.00 | 45 | 1017.9 |
| 20260502224037 | 52 | 30 | 2.6 | 3.5 | 0.00 | 0.00 | 0.00 | 45 | 1017.9 |
| 20260502223534 | 53 | 34 | 1.7 | 2.6 | 0.00 | 0.00 | 0.00 | 46 | 1017.7 |
| 20260502223033 | 52 | 95 | 0.0 | 0.9 | 0.00 | 0.00 | 0.00 | 48 | 1017.8 |
| 20260502222529 | 51 | 69 | 0.9 | 1.7 | 0.00 | 0.00 | 0.00 | 46 | 1017.7 |
| 20260502222026 | 51 | 52 | 1.7 | 1.7 | 0.00 | 0.00 | 0.00 | 46 | 1017.8 |
| 20260502221521 | 52 | 40 | 1.7 | 2.6 | 0.00 | 0.00 | 0.00 | 48 | 1017.7 |
| 20260502221019 | 52 | 61 | 0.9 | 2.6 | 0.00 | 0.00 | 0.00 | 45 | 1017.6 |
| 20260502220514 | 53 | 1 | 1.7 | 3.5 | 0.00 | 0.00 | 0.00 | 45 | 1017.7 |
| 20260502220011 | 52 | 64 | 0.9 | 1.7 | 0.00 | 0.00 | 0.00 | 46 | 1017.8 |
| 20260502215509 | 51 | 50 | 1.7 | 2.6 | 0.00 | 0.00 | 0.00 | 45 | 1017.7 |
| 20260502215005 | 51 | 74 | 0.0 | 2.6 | 0.00 | 0.00 | 0.00 | 46 | 1017.6 |
| 20260502214502 | 51 | 73 | 0.9 | 1.7 | 0.00 | 0.00 | 0.00 | 49 | 1017.5 |
| 20260502214000 | 51 | 30 | 1.7 | 2.6 | 0.00 | 0.00 | 0.00 | 48 | 1017.5 |
| 20260502213456 | 52 | 52 | 0.9 | 1.7 | 0.00 | 0.00 | 0.00 | 46 | 1017.5 |
| 20260502212954 | 53 | 5 | 3.5 | 5.2 | 0.00 | 0.00 | 0.00 | 43 | 1017.6 |
| 20260502212453 | 53 | 325 | 2.6 | 3.5 | 0.00 | 0.00 | 0.00 | 43 | 1017.5 |
| 20260502211950 | 54 | 43 | 1.7 | 3.5 | 0.00 | 0.00 | 0.00 | 45 | 1017.3 |
| 20260502211445 | 54 | 46 | 1.7 | 1.7 | 0.00 | 0.00 | 0.00 | 46 | 1017.3 |
| 20260502210943 | 55 | 91 | 0.9 | 2.6 | 0.00 | 0.00 | 0.00 | 42 | 1017.3 |
| 20260502210440 | 52 | 48 | 0.0 | 2.6 | 0.00 | 0.00 | 0.00 | 46 | 1017.3 |
| 20260502205937 | 52 | 15 | 2.6 | 3.5 | 0.00 | 0.00 | 0.00 | 42 | 1017.3 |
| 20260502205433 | 53 | 59 | 1.7 | 3.5 | 0.00 | 0.00 | 0.00 | 44 | 1017.6 |
| 20260502204931 | 54 | 348 | 1.7 | 3.5 | 0.00 | 0.00 | 0.00 | 43 | 1017.3 |
| 20260502204427 | 55 | 102 | 0.0 | 0.9 | 0.00 | 0.00 | 0.00 | 43 | 1017.0 |
| 20260502203925 | 55 | 51 | 0.9 | 1.7 | 0.00 | 0.00 | 0.00 | 48 | 1017.3 |
| 20260502203423 | 53 | 46 | 1.7 | 3.5 | 0.00 | 0.00 | 0.00 | 45 | 1017.5 |
| 20260502202918 | 52 | 31 | 0.9 | 2.6 | 0.00 | 0.00 | 0.00 | 47 | 1017.2 |
| 20260502202415 | 53 | 57 | 0.9 | 2.6 | 0.00 | 0.00 | 0.00 | 45 | 1017.6 |
| 20260502201914 | 53 | 7 | 1.7 | 2.6 | 0.00 | 0.00 | 0.00 | 43 | 1017.6 |
| 20260502201409 | 53 | 54 | 0.9 | 1.7 | 0.00 | 0.00 | 0.00 | 43 | 1017.7 |
| 20260502200906 | 55 | 18 | 3.5 | 3.5 | 0.00 | 0.00 | 0.00 | 41 | 1017.6 |